Home   Weather   Tours   Past weeks

Flag for France Past Weather in Tours, Centre-Val de Loire, France — Yesterday and Last 2 Weeks

50 °F


Feels Like: 47 °F
Forecast: 43 / 59 °F
Wind: 8 mph from Northeast

Location: Tours Airport

Current Time: Oct 22, 2016 at 8:01:18 PM

Latest Report: Oct 22, 2016 at 7:30 PM

Visibility: 10 mi

Pressure: 29.86 "Hg

Humidity: 71%

Dew Point: 41 °F

Location of ToursLocation

Past Weather in Tours — Graph


Tours Temperature Yesterday

Maximum temperature yesterday: 59 °F (at 1:30 PM)
Minimum temperature yesterday: 45 °F (at 7:30 AM)
Average temperature yesterday: 51 °F

High & Low Weather Summary for the Past Weeks

High72 °F (Oct 16, 4:00 PM)100% (Oct 13, 7:00 PM)30.33 "Hg (Oct 13, 7:00 PM)
Low39 °F (Oct 10, 5:00 AM)34% (Oct 12, 3:00 PM)29.59 "Hg (Oct 14, 5:30 AM)
Average52 °F78%30.05 "Hg
* Reported Oct 7 6:00 PM — Oct 22 6:30 PM, Tours, Weather by CustomWeather, © 2016

Note: Actual official high and low records may vary slightly from our data, if they occured in-between our weather recording intervals... More about our weather records


Tours Weather History for the Previous 24 Hours

Scroll right to see more
Time TempWeatherWind HumidityBarometerVisibility
6:30 PM
Sat, Oct 22
55 °FSunny.12 mph63%29.86 "Hg10 mi
6:00 PM57 °FPassing clouds.9 mph59%29.86 "HgN/A
5:30 PM57 °FSunny.10 mph59%29.86 "Hg10 mi
5:00 PM57 °FPassing clouds.10 mph59%29.86 "HgN/A
4:30 PM55 °FPassing clouds.12 mph67%29.89 "HgN/A
4:00 PM55 °FSunny.9 mph67%29.89 "Hg10 mi
3:30 PM55 °FPassing clouds.12 mph67%29.89 "HgN/A
3:00 PM54 °FPassing clouds.10 mph77%29.89 "HgN/A
2:30 PM52 °FMostly cloudy.9 mph82%29.92 "HgN/A
2:00 PM52 °FLow clouds.9 mph82%29.95 "HgN/A
1:30 PM52 °FPartly sunny.7 mph88%29.95 "HgN/A
1:00 PM48 °FLow clouds.7 mph94%29.95 "HgN/A
12:30 PM46 °FFog.7 mph100%29.95 "Hg3 mi
12:00 PM46 °FFog.6 mph100%29.95 "Hg1 mi
11:30 AM46 °FFog.7 mph93%29.95 "Hg1 mi
11:00 AM45 °FFog.5 mph100%29.95 "Hg0 mi
10:30 AM45 °FFog.7 mph93%29.95 "Hg0 mi
10:00 AM43 °FFog.6 mph100%29.95 "Hg0 mi
9:30 AM43 °FFog.6 mph100%29.95 "Hg0 mi
9:00 AM43 °FFog.6 mph100%29.95 "Hg0 mi
8:30 AM41 °FFog.5 mph100%29.95 "Hg1 mi
8:00 AM41 °FFog.5 mph100%29.95 "Hg2 mi
7:30 AM41 °FFog.5 mph100%29.95 "Hg3 mi
7:00 AM43 °FFog.2 mph93%29.95 "Hg3 mi
6:30 AM43 °FClear.2 mph100%29.98 "Hg4 mi
6:00 AM41 °FClear.2 mph93%29.98 "Hg4 mi
5:30 AM41 °FClear.2 mph100%29.98 "Hg4 mi
5:00 AM41 °FClear.2 mph93%29.98 "Hg10 mi
4:30 AM39 °FFog.No wind93%29.98 "Hg3 mi
4:00 AM41 °FClear.2 mph100%30.01 "Hg10 mi
3:30 AM41 °FClear.1 mph100%30.01 "Hg10 mi
3:00 AM41 °FClear.2 mph87%30.01 "Hg5 mi
2:30 AM41 °FClear.1 mph93%30.01 "Hg6 mi
2:00 AM45 °FClear.2 mph81%30.01 "Hg10 mi
1:30 AM46 °FClear.1 mph87%30.01 "Hg10 mi
1:00 AM46 °FClear.No wind87%30.04 "Hg10 mi
12:30 AM46 °FClear.3 mph87%30.04 "Hg10 mi
12:00 AM45 °FClear.1 mph93%30.04 "Hg10 mi
11:30 PM
Fri, Oct 21
46 °FClear.2 mph87%30.04 "Hg10 mi
11:00 PM46 °FClear.1 mph87%30.04 "Hg10 mi
10:30 PM50 °FClear.2 mph76%30.04 "Hg10 mi
10:00 PM50 °FClear.3 mph82%30.04 "Hg10 mi
9:30 PM52 °FClear.2 mph72%30.04 "Hg10 mi
9:00 PM52 °FClear.3 mph72%30.04 "Hg10 mi
8:30 PM54 °FClear.2 mph72%30.04 "Hg10 mi
8:00 PM54 °FClear.3 mph72%30.04 "Hg10 mi
Weather by CustomWeather, © 2016

See weather overviewHow to use our weather pages